Regional Weather Roundup
Issued by NWS

Home | Current Version | Previous Version | Text Only | Print | Product List | Glossary Off
Versions: 1 2 3 4 5 6 7 8 9 10 11 12 13 14 15 16 17 18 19 20 21 22 23 24 25 26 27 28

000
ASUS45 KCYS 241810
RWRWY

WYOMING REGIONAL WEATHER ROUNDUP
NATIONAL WEATHER SERVICE CHEYENNE WY
1200 PM MDT SAT JUN 24 2017

NOTE:  "FAIR" INDICATES FEW OR NO CLOUDS BELOW 12,000 FEET
WITH NO SIGNIFICANT WEATHER AND/OR OBSTRUCTIONS TO VISIBILITY.

WYZ001-241900-
YELLOWSTONE NATIONAL PARK

CITY           SKY/WX    TMP DP  RH WIND       PRES   REMARKS
LK YELLOWSTONE   N/A     56  35  45 VRB6      30.45S
6HR MIN TEMP:  29; 6HR MAX TEMP:  57;

W YELLOWSTONE  NOT AVBL

$$
WYZ002>013-054>058-071-098>099-241900-
NORTHERN WYOMING

CITY           SKY/WX    TMP DP  RH WIND       PRES   REMARKS
JACKSON        SUNNY     64  36  34 CALM      30.36F
CODY           FAIR      64  34  32 VRB5      30.37F
GREYBULL       FAIR      72  29  20 NW9       30.30F
6HR MIN TEMP:  48; 6HR MAX TEMP:  73;

WORLAND        FAIR      69  34  27 N6        30.32F
6HR MIN TEMP:  41; 6HR MAX TEMP:  69;

SHERIDAN       FAIR      70  36  28 NE14      30.34S
6HR MIN TEMP:  49; 6HR MAX TEMP:  71;

BUFFALO        FAIR      64  36  35 N10G22    30.37S
6HR MIN TEMP:  48; 6HR MAX TEMP:  65;

GILLETTE       FAIR      68  32  26 W13G20    30.33F
6HR MIN TEMP:  49; 6HR MAX TEMP:  68;

NEWCASTLE      FAIR      64  30  27 NW13G23   30.34S

$$
WYZ014>020-022>026-101>103-241900-
CENTRAL WYOMING

CITY           SKY/WX    TMP DP  RH WIND       PRES   REMARKS
BIG PINEY      FAIR      65  32  29 S8        30.40F
6HR MIN TEMP:  34; 6HR MAX TEMP:  66;

PINEDALE       FAIR      63  30  29 S5        30.42S
DUBOIS         FAIR      61  30  31 E9G17     30.39F
LANDER         FAIR      63  33  32 VRB3      30.36S
6HR MIN TEMP:  43; 6HR MAX TEMP:  66;

RIVERTON       FAIR      65  30  27 VRB7      30.37S
6HR MIN TEMP:  41; 6HR MAX TEMP:  66;

CASPER         FAIR      67  30  25 MISG      30.36S
6HR MIN TEMP:  39; 6HR MAX TEMP:  68;

DOUGLAS        FAIR      70  33  25 NW9       30.35S
6HR MIN TEMP:  45; 6HR MAX TEMP:  70;


$$
WYZ021-027>030-104>119-241900-
SOUTHERN WYOMING

CITY           SKY/WX    TMP DP  RH WIND       PRES   REMARKS
EVANSTON       FAIR      69  32  25 VRB3      30.39S
6HR MIN TEMP:  46; 6HR MAX TEMP:  69;

KEMMERER         N/A     64  30  27 CALM      30.42S
FORT BRIDGER   FAIR      67  31  25 S3        30.43S
ROCK SPRINGS   FAIR      68  29  23 VRB5      30.39F
6HR MIN TEMP:  45; 6HR MAX TEMP:  68;

DIXON          FAIR      71  29  21 N7        30.38S
RAWLINS        FAIR      66  30  26 N6G18     30.40S
6HR MIN TEMP:  44; 6HR MAX TEMP:  67;

SARATOGA       FAIR      64  30  27 NW7       30.40S
LARAMIE        FAIR      63  33  32 VRB7      30.38S
6HR MIN TEMP:  47; 6HR MAX TEMP:  64;

CHEYENNE       FAIR      66  37  34 VRB5      30.37S
6HR MIN TEMP:  51; 6HR MAX TEMP:  66;

TORRINGTON     FAIR      71  30  21 VRB5      30.31S
6HR MIN TEMP:  52; 6HR MAX TEMP:  72;

PINE BLUFFS    CLOUDY    64  34  32 SE5       30.35S

$$




USA.gov is the U.S. government's official web portal to all federal, state and local government web resources and services.